FW9840 Weather Reports


Display with metric or nautical units.
time (UTC)temp
F
wind
direction
speed
MPH
gust
MPH
rain 1hr
in
rain 24hr
in
rain mn
in
humidity
%
barometer
mb
20260906031608 77 0 0.0 2.0 0.00 0.00 0.00 79 1015.4
20260906031029 78 209 0.0 1.0 0.00 0.00 0.00 78 1015.5
20260906030528 78 0 0.0 0.0 0.00 0.00 0.00 78 1015.5
20260906030045 78 0 0.0 0.0 0.00 0.00 0.00 77 1015.5
20260906025531 79 0 0.0 0.0 0.00 0.00 0.00 77 1015.4
20260906025031 79 0 0.0 0.0 0.00 0.00 0.00 76 1015.3
20260906024555 79 0 0.0 0.0 0.00 0.00 0.00 76 1015.2
20260906024026 79 0 0.0 0.0 0.00 0.00 0.00 76 1015.2
20260906023526 79 0 0.0 0.0 0.00 0.00 0.00 75 1015.1
20260906023105 80 0 0.0 0.0 0.00 0.00 0.00 75 1015.1
20260906022528 80 0 0.0 0.0 0.00 0.00 0.00 75 1015.0
20260906022029 80 0 0.0 1.0 0.00 0.00 0.00 74 1014.9
20260906021546 80 0 0.0 1.0 0.00 0.00 0.00 73 1014.8
20260906021028 81 0 0.0 2.0 0.00 0.00 0.00 72 1014.6
20260906020531 82 0 0.0 2.0 0.00 0.00 0.00 71 1014.5
20260906020058 82 209 0.0 3.0 0.00 0.00 0.00 70 1014.4
20260906015528 82 0 0.0 3.0 0.00 0.00 0.00 69 1014.3
20260906015028 83 0 1.0 3.0 0.00 0.00 0.00 68 1014.3
20260906014548 83 209 0.0 2.0 0.00 0.00 0.00 68 1014.2
20260906014029 84 0 0.0 4.0 0.00 0.00 0.00 67 1014.2
20260906013534 84 0 0.0 4.0 0.00 0.00 0.00 66 1014.2
20260906013047 84 0 1.0 4.0 0.00 0.00 0.00 66 1014.2
20260906012529 84 212 1.0 4.0 0.00 0.00 0.00 65 1014.2
20260906012029 85 0 0.0 2.0 0.00 0.00 0.00 65 1014.5
20260906011605 85 0 0.0 7.0 0.00 0.00 0.00 65 1014.5
20260906011027 85 187 0.0 7.0 0.00 0.00 0.00 64 1014.3
20260906010529 85 126 1.0 5.0 0.00 0.00 0.00 64 1014.5
20260906010055 85 65 3.0 5.0 0.00 0.00 0.00 63 1015.0
20260906005527 86 0 0.0 2.0 0.00 0.00 0.00 63 1014.6
20260906005029 86 0 0.0 4.0 0.00 0.00 0.00 62 1014.8
20260906004559 86 0 0.0 4.0 0.00 0.00 0.00 61 1014.5
20260906004031 86 81 0.0 4.0 0.00 0.00 0.00 61 1014.4
20260906003529 86 186 1.0 7.0 0.00 0.00 0.00 62 1014.2
20260906003056 87 212 2.0 7.0 0.00 0.00 0.00 62 1014.1
20260906002529 87 124 1.0 3.0 0.00 0.00 0.00 63 1014.1
20260906002027 88 0 0.0 4.0 0.00 0.00 0.00 62 1014.1
20260906001554 88 0 0.0 4.0 0.00 0.00 0.00 60 1014.1
20260906001028 89 98 0.0 3.0 0.00 0.00 0.00 60 1014.2
20260906000526 89 97 0.0 2.0 0.00 0.00 0.00 58 1014.1
20260906000059 89 0 0.0 0.0 0.00 0.00 0.00 58 1014.1
20260905235530 90 0 0.0 1.0 0.00 0.00 0.00 57 1014.1
20260905235028 90 0 0.0 2.0 0.00 0.00 0.00 56 1014.0
20260905234549 91 0 0.0 2.0 0.00 0.00 0.00 56 1014.0
20260905234027 92 275 0.0 2.0 0.00 0.00 0.00 55 1014.0
20260905233530 92 275 0.0 2.0 0.00 0.00 0.00 54 1014.1
20260905233050 93 0 0.0 3.0 0.00 0.00 0.00 53 1014.1
20260905232529 94 274 0.0 3.0 0.00 0.00 0.00 53 1014.0
20260905232034 94 0 1.0 3.0 0.00 0.00 0.00 51 1013.9
20260905231603 94 0 0.0 1.0 0.00 0.00 0.00 51 1013.9
20260905231031 95 0 0.0 3.0 0.00 0.00 0.00 51 1013.9
20260905230526 95 0 0.0 3.0 0.00 0.00 0.00 50 1013.9
20260905230048 96 0 0.0 3.0 0.00 0.00 0.00 50 1013.9
20260905225526 96 0 0.0 4.0 0.00 0.00 0.00 49 1013.9
20260905225028 96 0 1.0 4.0 0.00 0.00 0.00 48 1013.9
20260905224555 97 287 0.0 4.0 0.00 0.00 0.00 48 1013.9
20260905224034 97 0 0.0 5.0 0.00 0.00 0.00 48 1013.9
20260905223529 97 0 0.0 5.0 0.00 0.00 0.00 48 1014.0
20260905223056 97 0 1.0 5.0 0.00 0.00 0.00 49 1014.0
20260905222529 97 0 0.0 5.0 0.00 0.00 0.00 50 1013.9
20260905222032 96 344 1.0 4.0 0.00 0.00 0.00 49 1014.0
20260905221601 97 261 1.0 5.0 0.00 0.00 0.00 49 1014.0
20260905221026 97 257 2.0 6.0 0.00 0.00 0.00 48 1013.9
20260905220526 97 34 2.0 6.0 0.00 0.00 0.00 49 1013.9
20260905220049 97 282 1.0 8.0 0.00 0.00 0.00 49 1014.0
20260905215532 97 296 2.0 8.0 0.00 0.00 0.00 48 1014.0
20260905215028 98 258 2.0 6.0 0.00 0.00 0.00 48 1013.9
20260905214602 98 295 1.0 6.0 0.00 0.00 0.00 49 1014.0
20260905214029 97 0 1.0 6.0 0.00 0.00 0.00 50 1014.0
20260905213529 97 217 2.0 6.0 0.00 0.00 0.00 49 1014.1
20260905213054 97 219 3.0 8.0 0.00 0.00 0.00 48 1014.0
20260905212529 97 299 2.0 8.0 0.00 0.00 0.00 49 1014.1
20260905212028 98 285 2.0 7.0 0.00 0.00 0.00 49 1014.1
20260905211549 97 269 1.0 7.0 0.00 0.00 0.00 48 1014.2
20260905211028 98 223 2.0 6.0 0.00 0.00 0.00 48 1014.1
20260905210527 98 5 2.0 6.0 0.00 0.00 0.00 47 1014.1
20260905210050 98 90 1.0 5.0 0.00 0.00 0.00 47 1014.1
20260905205536 98 281 1.0 5.0 0.00 0.00 0.00 48 1014.1
20260905205052 98 302 1.0 8.0 0.00 0.00 0.00 48 1014.2
20260905204556 98 296 2.0 8.0 0.00 0.00 0.00 48 1014.2
20260905204031 98 301 1.0 8.0 0.00 0.00 0.00 48 1014.3
20260905203528 98 340 2.0 8.0 0.00 0.00 0.00 47 1014.4
20260905203051 99 43 1.0 4.0 0.00 0.00 0.00 47 1014.5
20260905202526 98 153 0.0 5.0 0.00 0.00 0.00 46 1014.5
20260905202030 98 340 1.0 5.0 0.00 0.00 0.00 46 1014.8
20260905201557 98 93 3.0 6.0 0.00 0.00 0.00 47 1014.9
20260905201028 98 51 2.0 8.0 0.00 0.00 0.00 46 1015.0
20260905200530 98 59 2.0 8.0 0.00 0.00 0.00 47 1015.0
20260905200127 98 253 2.0 8.0 0.00 0.00 0.00 46 1015.2
20260905195528 98 277 1.0 10.0 0.00 0.00 0.00 47 1015.2
20260905195027 98 55 2.0 10.0 0.00 0.00 0.00 48 1015.3
20260905194552 98 63 1.0 9.0 0.00 0.00 0.00 47 1015.3
20260905194027 98 148 1.0 5.0 0.00 0.00 0.00 45 1015.3
20260905193530 97 61 1.0 6.0 0.00 0.00 0.00 47 1015.5
20260905193047 97 0 2.0 6.0 0.00 0.00 0.00 47 1015.5
20260905192532 97 122 3.0 7.0 0.00 0.00 0.00 49 1015.5
20260905192028 97 53 1.0 9.0 0.00 0.00 0.00 50 1015.6
20260905191558 97 0 1.0 9.0 0.00 0.00 0.00 49 1015.7
20260905191029 97 331 2.0 6.0 0.00 0.00 0.00 49 1015.7
20260905190529 97 0 1.0 6.0 0.00 0.00 0.00 49 1015.7
20260905190100 96 41 2.0 8.0 0.00 0.00 0.00 50 1015.8
20260905185526 96 278 3.0 8.0 0.00 0.00 0.00 51 1015.8
20260905185031 95 309 2.0 7.0 0.00 0.00 0.00 51 1016.0
20260905184600 95 262 1.0 6.0 0.00 0.00 0.00 54 1016.0
20260905184028 95 5 1.0 4.0 0.00 0.00 0.00 55 1016.1
20260905183528 94 279 1.0 5.0 0.00 0.00 0.00 54 1016.1
20260905183048 95 330 2.0 5.0 0.00 0.00 0.00 53 1016.3
20260905182528 95 9 2.0 7.0 0.00 0.00 0.00 53 1016.4
20260905182029 96 355 1.0 7.0 0.00 0.00 0.00 53 1016.5
20260905181557 96 221 2.0 7.0 0.00 0.00 0.00 51 1016.5
20260905181029 96 36 1.0 5.0 0.00 0.00 0.00 51 1016.6
20260905180529 96 109 0.0 8.0 0.00 0.00 0.00 52 1016.6
20260905180112 96 314 3.0 8.0 0.00 0.00 0.00 52 1016.7
20260905175529 96 251 1.0 5.0 0.00 0.00 0.00 50 1016.7
20260905175029 96 329 1.0 4.0 0.00 0.00 0.00 53 1016.7
20260905174550 96 0 1.0 5.0 0.00 0.00 0.00 53 1016.8
20260905174029 96 42 1.0 5.0 0.00 0.00 0.00 53 1016.8
20260905173528 96 19 2.0 4.0 0.00 0.00 0.00 54 1016.9
20260905173114 95 46 1.0 4.0 0.00 0.00 0.00 54 1016.8
20260905172528 95 67 1.0 4.0 0.00 0.00 0.00 54 1017.0
20260905172030 95 0 0.0 4.0 0.00 0.00 0.00 55 1016.8
20260905171558 94 5 2.0 5.0 0.00 0.00 0.00 55 1016.9
20260905171028 94 355 2.0 5.0 0.00 0.00 0.00 56 1017.0
20260905170529 94 281 2.0 5.0 0.00 0.00 0.00 56 1017.0
20260905170055 94 360 2.0 5.0 0.00 0.00 0.00 57 1017.1
20260905165528 94 44 1.0 6.0 0.00 0.00 0.00 57 1017.1
20260905165028 94 32 1.0 6.0 0.00 0.00 0.00 56 1017.2
20260905164555 94 54 0.0 5.0 0.00 0.00 0.00 57 1017.3
20260905164029 94 67 1.0 3.0 0.00 0.00 0.00 58 1017.3
20260905163528 94 360 0.0 3.0 0.00 0.00 0.00 58 1017.4
20260905163048 93 46 1.0 3.0 0.00 0.00 0.00 59 1017.5
20260905162528 93 98 0.0 5.0 0.00 0.00 0.00 60 1017.4
20260905162028 92 0 1.0 5.0 0.00 0.00 0.00 60 1017.5
20260905161559 93 276 2.0 5.0 0.00 0.00 0.00 60 1017.5
20260905161029 92 76 1.0 3.0 0.00 0.00 0.00 61 1017.6
20260905160529 92 340 0.0 7.0 0.00 0.00 0.00 62 1017.6
20260905160100 91 69 1.0 7.0 0.00 0.00 0.00 62 1017.6
20260905155531 90 0 0.0 3.0 0.00 0.00 0.00 65 1017.6
20260905155028 89 44 1.0 4.0 0.00 0.00 0.00 66 1017.7
20260905154552 88 259 1.0 4.0 0.00 0.00 0.00 67 1017.7
20260905154030 88 311 2.0 4.0 0.00 0.00 0.00 68 1017.7
20260905153529 87 168 1.0 4.0 0.00 0.00 0.00 70 1017.7
20260905153047 87 165 1.0 4.0 0.00 0.00 0.00 71 1017.7
20260905152525 86 232 0.0 3.0 0.00 0.00 0.00 73 1017.8
20260905152025 85 250 1.0 3.0 0.00 0.00 0.00 73 1017.8
20260905151547 85 250 0.0 2.0 0.00 0.00 0.00 76 1017.8
20260905151031 84 0 0.0 3.0 0.00 0.00 0.00 75 1017.8
20260905150527 84 248 0.0 3.0 0.00 0.00 0.00 76 1017.8
20260905150053 83 0 0.0 3.0 0.00 0.00 0.00 78 1017.9
20260905145528 83 0 1.0 3.0 0.00 0.00 0.00 77 1018.0
20260905145026 83 0 1.0 3.0 0.00 0.00 0.00 78 1018.0
20260905144549 82 0 0.0 3.0 0.00 0.00 0.00 79 1018.0
20260905144027 82 0 0.0 0.0 0.00 0.00 0.00 79 1018.0
20260905143528 82 0 0.0 0.0 0.00 0.00 0.00 80 1018.0
20260905143047 81 0 0.0 0.0 0.00 0.00 0.00 81 1018.0
20260905142527 81 0 0.0 1.0 0.00 0.00 0.00 81 1017.9
20260905142028 80 0 0.0 1.0 0.00 0.00 0.00 83 1018.0
20260905141546 80 0 0.0 2.0 0.00 0.00 0.00 84 1017.9
20260905141029 80 0 0.0 2.0 0.00 0.00 0.00 85 1018.0
20260905140531 79 0 0.0 1.0 0.00 0.00 0.00 86 1018.0
20260905135527 78 0 0.0 0.0 0.00 0.00 0.00 87 1018.0
20260905135026 78 0 0.0 0.0 0.00 0.00 0.00 88 1017.9
20260905134557 78 0 0.0 0.0 0.00 0.00 0.00 88 1017.9
20260905134029 77 0 0.0 0.0 0.00 0.00 0.00 89 1017.9
20260905133527 77 0 0.0 0.0 0.00 0.00 0.00 90 1018.0
20260905133058 77 0 0.0 0.0 0.00 0.00 0.00 90 1018.0
20260905132525 76 0 0.0 0.0 0.00 0.00 0.00 91 1018.0
20260905132028 76 0 0.0 0.0 0.00 0.00 0.00 91 1018.0
20260905131552 75 0 0.0 0.0 0.00 0.00 0.00 92 1018.1
20260905131027 75 0 0.0 0.0 0.00 0.00 0.00 93 1018.0
20260905130529 75 0 0.0 0.0 0.00 0.00 0.00 94 1018.2
20260905130055 74 0 0.0 0.0 0.00 0.00 0.00 94 1018.2
20260905125527 74 0 0.0 0.0 0.00 0.00 0.00 94 1018.2
20260905125027 73 0 0.0 0.0 0.00 0.00 0.00 95 1018.2
20260905124552 73 0 0.0 0.0 0.00 0.00 0.00 95 1018.3
20260905124025 73 0 0.0 0.0 0.00 0.00 0.00 96 1018.2
20260905123527 72 0 0.0 0.0 0.00 0.00 0.00 96 1018.2
20260905123048 72 0 0.0 1.0 0.00 0.00 0.00 96 1018.2
20260905122528 71 0 0.0 1.0 0.00 0.00 0.00 96 1018.1
20260905122028 71 0 0.0 1.0 0.00 0.00 0.00 96 1018.0
20260905121547 71 0 0.0 0.0 0.00 0.00 0.00 96 1018.0
20260905121026 71 0 0.0 0.0 0.00 0.00 0.00 96 1018.0
20260905120526 71 0 0.0 0.0 0.00 0.00 0.00 96 1017.9
20260905120058 70 0 0.0 0.0 0.00 0.00 0.00 96 1017.8
20260905115527 70 0 0.0 0.0 0.00 0.00 0.00 95 1017.8
20260905115031 70 0 0.0 0.0 0.00 0.00 0.00 95 1017.7
20260905114601 70 0 0.0 0.0 0.00 0.00 0.00 95 1017.6
20260905114027 70 0 0.0 0.0 0.00 0.00 0.00 95 1017.6
20260905113533 70 0 0.0 0.0 0.00 0.00 0.00 94 1017.6
20260905113056 70 0 0.0 0.0 0.00 0.00 0.00 94 1017.5
20260905112527 70 0 0.0 0.0 0.00 0.00 0.00 94 1017.4
20260905112027 70 0 0.0 0.0 0.00 0.00 0.00 94 1017.3
20260905111633 70 0 0.0 0.0 0.00 0.00 0.00 94 1017.2
20260905111027 70 0 0.0 0.0 0.00 0.00 0.00 94 1017.1
20260905110526 70 0 0.0 0.0 0.00 0.00 0.00 94 1017.0
20260905110045 70 0 0.0 0.0 0.00 0.00 0.00 94 1017.1
20260905105528 70 0 0.0 0.0 0.00 0.00 0.00 94 1017.1
20260905105027 70 0 0.0 0.0 0.00 0.00 0.00 94 1017.0
20260905104544 70 0 0.0 0.0 0.00 0.00 0.00 94 1017.0
20260905104028 70 0 0.0 0.0 0.00 0.00 0.00 94 1016.9
20260905103528 70 0 0.0 0.0 0.00 0.00 0.00 94 1016.9
20260905103053 70 0 0.0 0.0 0.00 0.00 0.00 94 1016.8
20260905102528 70 0 0.0 0.0 0.00 0.00 0.00 94 1016.7
20260905102024 70 0 0.0 0.0 0.00 0.00 0.00 94 1016.8
20260905101547 70 0 0.0 0.0 0.00 0.00 0.00 94 1016.7
20260905101028 70 0 0.0 0.0 0.00 0.00 0.00 94 1016.6
20260905100529 70 0 0.0 0.0 0.00 0.00 0.00 94 1016.6
20260905100048 70 0 0.0 0.0 0.00 0.00 0.00 93 1016.7
20260905095525 70 0 0.0 0.0 0.00 0.00 0.00 94 1016.7
20260905095029 70 0 0.0 0.0 0.00 0.00 0.00 94 1016.5
20260905094551 70 0 0.0 0.0 0.00 0.00 0.00 93 1016.6
20260905094028 70 0 0.0 0.0 0.00 0.00 0.00 93 1016.5
20260905093528 70 0 0.0 0.0 0.00 0.00 0.00 93 1016.6
20260905093106 70 0 0.0 1.0 0.00 0.00 0.00 93 1016.5
20260905092530 70 0 0.0 1.0 0.00 0.00 0.00 93 1016.5
20260905092029 70 0 0.0 0.0 0.00 0.00 0.00 93 1016.5
20260905091546 70 0 0.0 0.0 0.00 0.00 0.00 93 1016.5
20260905091028 71 0 0.0 1.0 0.00 0.00 0.00 93 1016.4
20260905090529 71 0 0.0 1.0 0.00 0.00 0.00 93 1016.4
20260905090047 71 0 0.0 0.0 0.00 0.00 0.00 93 1016.5
20260905085529 71 0 0.0 0.0 0.00 0.00 0.00 93 1016.4
20260905085028 71 0 0.0 0.0 0.00 0.00 0.00 93 1016.5
20260905084558 71 0 0.0 0.0 0.00 0.00 0.00 93 1016.4
20260905084028 71 0 0.0 0.0 0.00 0.00 0.00 93 1016.6
20260905083531 71 0 0.0 0.0 0.00 0.00 0.00 93 1016.6
20260905083050 71 0 0.0 0.0 0.00 0.00 0.00 93 1016.6
20260905082527 71 0 0.0 0.0 0.00 0.00 0.00 93 1016.6
20260905082028 71 0 0.0 0.0 0.00 0.00 0.00 93 1016.5
20260905081546 71 0 0.0 0.0 0.00 0.00 0.00 93 1016.6
20260905081026 71 0 0.0 0.0 0.00 0.00 0.00 93 1016.6
20260905080530 71 0 0.0 0.0 0.00 0.00 0.00 93 1016.7
20260905080048 71 0 0.0 0.0 0.00 0.00 0.00 93 1016.6
20260905075529 71 0 0.0 1.0 0.00 0.00 0.00 92 1016.6
20260905075027 71 0 0.0 1.0 0.00 0.00 0.00 92 1016.6
20260905074545 71 0 0.0 1.0 0.00 0.00 0.00 92 1016.6
20260905074028 71 0 0.0 0.0 0.00 0.00 0.00 92 1016.7
20260905073529 71 0 0.0 0.0 0.00 0.00 0.00 92 1016.7
20260905073049 71 0 0.0 0.0 0.00 0.00 0.00 92 1016.7
20260905072529 71 0 0.0 0.0 0.00 0.00 0.00 92 1016.7
20260905072029 71 0 0.0 0.0 0.00 0.00 0.00 92 1016.7
20260905071548 71 0 0.0 0.0 0.00 0.00 0.00 92 1016.6
20260905071028 71 0 0.0 0.0 0.00 0.00 0.00 91 1016.6
20260905070534 71 0 0.0 0.0 0.00 0.00 0.00 91 1016.6
20260905070054 71 0 0.0 0.0 0.00 0.00 0.00 91 1016.6
20260905065528 72 0 0.0 0.0 0.00 0.00 0.00 91 1016.7
20260905065027 72 0 0.0 0.0 0.00 0.00 0.00 91 1016.7
20260905064611 72 0 0.0 0.0 0.00 0.00 0.00 91 1016.7
20260905064030 72 0 0.0 0.0 0.00 0.00 0.00 91 1016.8
20260905063531 72 0 0.0 0.0 0.00 0.00 0.00 91 1016.8
20260905063052 72 0 0.0 0.0 0.00 0.00 0.00 91 1016.9
20260905062530 72 0 0.0 0.0 0.00 0.00 0.00 90 1016.9
20260905062029 72 0 0.0 0.0 0.00 0.00 0.00 91 1016.9
20260905061547 72 0 0.0 0.0 0.00 0.00 0.00 91 1016.7
20260905061027 72 0 0.0 0.0 0.00 0.00 0.00 91 1016.9
20260905060528 72 0 0.0 0.0 0.00 0.00 0.00 91 1016.8
20260905060053 73 0 0.0 0.0 0.00 0.00 0.00 90 1016.9
20260905055529 73 0 0.0 0.0 0.00 0.00 0.00 90 1016.8
20260905055032 73 0 0.0 0.0 0.00 0.00 0.00 90 1016.8
20260905054550 73 0 0.0 0.0 0.00 0.00 0.00 90 1016.8
20260905054028 73 0 0.0 0.0 0.00 0.00 0.00 90 1016.8
20260905053528 73 0 0.0 0.0 0.00 0.00 0.00 90 1017.0
20260905053045 73 0 0.0 0.0 0.00 0.00 0.00 89 1016.9
20260905052529 73 0 0.0 0.0 0.00 0.00 0.00 89 1016.8
20260905052029 73 0 0.0 0.0 0.00 0.00 0.00 89 1016.9
20260905051553 74 0 0.0 0.0 0.00 0.00 0.00 89 1016.9
20260905051025 74 0 0.0 0.0 0.00 0.00 0.00 89 1016.9
20260905050527 74 0 0.0 0.0 0.00 0.00 0.00 89 1017.1
20260905050055 74 0 0.0 0.0 0.00 0.00 0.00 89 1017.2
20260905045528 74 0 0.0 0.0 0.00 0.00 0.00 89 1017.2
20260905045025 74 0 0.0 0.0 0.00 0.00 0.00 88 1017.1
20260905044548 74 0 0.0 0.0 0.00 0.00 0.00 88 1017.1
20260905044027 75 0 0.0 0.0 0.00 0.00 0.00 88 1017.1
20260905043525 75 0 0.0 0.0 0.00 0.00 0.00 88 1017.2
20260905043046 75 0 0.0 0.0 0.00 0.00 0.00 88 1017.3
20260905042528 75 0 0.0 0.0 0.00 0.00 0.00 88 1017.3
20260905042028 75 0 0.0 0.0 0.00 0.00 0.00 88 1017.2
20260905041558 75 0 0.0 0.0 0.00 0.00 0.00 88 1017.3
20260905041028 75 0 0.0 0.0 0.00 0.00 0.00 87 1017.1
20260905040527 75 0 0.0 0.0 0.00 0.00 0.00 87 1017.3
20260905040056 75 0 0.0 0.0 0.00 0.00 0.00 87 1017.3
20260905035525 76 0 0.0 0.0 0.00 0.00 0.00 86 1017.4
20260905035028 76 0 0.0 0.0 0.00 0.00 0.00 86 1017.4
20260905034603 76 0 0.0 0.0 0.00 0.00 0.00 86 1017.4
20260905034027 76 0 0.0 0.0 0.00 0.00 0.00 86 1017.4
20260905033528 76 0 0.0 0.0 0.00 0.00 0.00 85 1017.5
20260905033048 77 0 0.0 0.0 0.00 0.00 0.00 85 1017.6
20260905032527 77 0 0.0 0.0 0.00 0.00 0.00 85 1017.6
20260905032031 77 0 0.0 0.0 0.00 0.00 0.00 85 1017.6